Weather History for Windom, MN

Change the Weather History Date:

Wednesday, October 2, 2013

  Actual Average Record
Temperature  
Mean Temperature 60 °F -  
Max Temperature 80 °F 71 °F 113 °F (1998)
Min Temperature 41 °F 41 °F 20 °F (1974)
Degree Days  
Heating Degree Days 4    
Growing Degree Days 10 (Base 50)    
Moisture  
Dew Point 45 °F    
Average Humidity 61    
Maximum Humidity 94    
Minimum Humidity 19    
Precipitation  
Precipitation 0.60 in - - ()
Sea Level Pressure  
Sea Level Pressure 29.94 in    
Wind  
Wind Speed 6 mph (SE)    
Max Wind Speed 23 mph    
Max Gust Speed 33 mph    
Visibility 10 miles    
Events Rain , Thunderstorm    
Averages and records for this station are not official NWS values.
T = Trace of Precipitation, MM = Missing Value Source: NWS Daily Summary

Daily Weather History Graph

Daily Weather History Graph

Search for Another Location

Airport:

Trip Planner

Search our weather history database for the weather conditions in past years. The results will help you decide how hot, cold, wet, or windy it might be!

Date:

Astronomy

Oct. 02, 2013 Rise Set
Actual Time 7:19 AM CDT 6:59 PM CDT
Civil Twilight 6:50 AM CDT 7:27 PM CDT
Nautical Twilight 6:17 AM CDT 8:01 PM CDT
Astronomical Twilight 5:43 AM CDT 8:34 PM CDT
Moon 4:49 AM CDT (10/2) 5:38 PM CDT (10/2)
Length of Visible Light 12h 36m
Length of Day
11h 39m
Waning Crescent, 6% of the Moon is Illuminated
Oct 2
Waning Crescent
Oct 4
New
Oct 11
First Quarter
Oct 18
Full
Oct 26
Last Quarter

Hourly Weather History & Observations

Time (CDT) Temp. Windchill Dew Point Humidity Pressure Visibility Wind Dir Wind Speed Gust Speed Precip Events Conditions
12:12 AM 46.4 °F - 37.4 °F 71% 30.02 in 10.0 mi Calm Calm - N/A   Clear
12:33 AM 46.4 °F - 39.2 °F 76% 30.02 in 10.0 mi Calm Calm - N/A   Clear
12:52 AM 46.4 °F - 39.2 °F 76% 30.02 in 10.0 mi Calm Calm - N/A   Clear
1:12 AM 46.4 °F - 39.2 °F 76% 30.02 in 10.0 mi Calm Calm - N/A   Clear
1:33 AM 46.4 °F - 39.2 °F 76% 30.02 in 10.0 mi Calm Calm - N/A   Clear
1:52 AM 44.6 °F - 39.2 °F 81% 30.02 in 10.0 mi Calm Calm - N/A   Clear
2:12 AM 44.6 °F - 39.2 °F 81% 30.03 in 10.0 mi Calm Calm - N/A   Clear
2:32 AM 46.4 °F - 39.2 °F 76% 30.03 in 10.0 mi Calm Calm - N/A   Clear
2:52 AM 42.8 °F - 37.4 °F 81% 30.03 in 10.0 mi Calm Calm - N/A   Clear
3:12 AM 46.4 °F - 39.2 °F 76% 30.03 in 10.0 mi Calm Calm - N/A   Clear
3:33 AM 41.0 °F - 37.4 °F 87% 30.03 in 10.0 mi Calm Calm - N/A   Clear
3:52 AM 42.8 °F - 37.4 °F 81% 30.02 in 10.0 mi Calm Calm - N/A   Clear
4:12 AM 42.8 °F - 37.4 °F 81% 30.02 in 10.0 mi Calm Calm - N/A   Clear
4:33 AM 41.0 °F - 37.4 °F 87% 30.02 in 10.0 mi Calm Calm - N/A   Clear
4:52 AM 42.8 °F - 39.2 °F 87% 30.02 in 10.0 mi Calm Calm - N/A   Clear
5:12 AM 42.8 °F - 39.2 °F 87% 30.02 in 10.0 mi Calm Calm - N/A   Clear
5:33 AM 42.8 °F - 37.4 °F 81% 30.03 in 10.0 mi Calm Calm - N/A   Clear
5:52 AM 42.8 °F - 37.4 °F 81% 30.03 in 10.0 mi Calm Calm - N/A   Clear
6:12 AM 42.8 °F 41.1 °F 37.4 °F 81% 30.02 in 10.0 mi ESE 3.5 mph - N/A   Clear
6:33 AM 46.4 °F 45.2 °F 35.6 °F 66% 30.02 in 10.0 mi ESE 3.5 mph - N/A   Clear
6:52 AM 46.4 °F 43.5 °F 35.6 °F 66% 30.02 in 10.0 mi ESE 5.8 mph - N/A   Clear
7:12 AM 46.4 °F 44.3 °F 35.6 °F 66% 30.02 in 10.0 mi ESE 4.6 mph - N/A   Clear
7:33 AM 48.2 °F - 35.6 °F 62% 30.02 in 10.0 mi ESE 8.1 mph - N/A   Clear
7:52 AM 51.8 °F - 35.6 °F 54% 30.02 in 10.0 mi ESE 8.1 mph - N/A   Clear
8:13 AM 53.6 °F - 37.4 °F 54% 30.02 in 10.0 mi ESE 6.9 mph - N/A   Clear
8:32 AM 55.4 °F - 35.6 °F 47% 30.02 in 10.0 mi SE 9.2 mph - N/A   Clear
8:52 AM 57.2 °F - 35.6 °F 44% 30.02 in 10.0 mi SE 9.2 mph - N/A   Clear
9:12 AM 60.8 °F - 35.6 °F 39% 30.02 in 10.0 mi ESE 9.2 mph - N/A   Clear
9:32 AM 62.6 °F - 33.8 °F 34% 30.01 in 10.0 mi ESE 15.0 mph 19.6 mph N/A   Clear
9:52 AM 64.4 °F - 32.0 °F 30% 30.02 in 10.0 mi ESE 13.8 mph 21.9 mph N/A   Clear
10:13 AM 66.2 °F - 33.8 °F 30% 30.01 in 10.0 mi ESE 17.3 mph 23.0 mph N/A   Clear
10:32 AM 68.0 °F - 32.0 °F 26% 30.01 in 10.0 mi SE 11.5 mph 20.7 mph N/A   Clear
10:52 AM 69.8 °F - 30.2 °F 23% 30.00 in 10.0 mi ESE 18.4 mph 26.5 mph N/A   Scattered Clouds
11:13 AM 71.6 °F - 28.4 °F 20% 29.99 in 10.0 mi SE 20.7 mph 29.9 mph N/A   Mostly Cloudy
11:32 AM 71.6 °F - 28.4 °F 20% 29.99 in 10.0 mi SE 19.6 mph 29.9 mph N/A   Scattered Clouds
11:52 AM 73.4 °F - 30.2 °F 20% 29.98 in 10.0 mi SE 15.0 mph 25.3 mph N/A   Scattered Clouds
12:12 PM 73.4 °F - 28.4 °F 19% 29.97 in 10.0 mi SE 19.6 mph 24.2 mph N/A   Scattered Clouds
12:32 PM 75.2 °F - 30.2 °F 19% 29.96 in 10.0 mi SE 23.0 mph 31.1 mph N/A   Clear
12:53 PM 75.2 °F - 32.0 °F 21% 29.95 in 10.0 mi SE 23.0 mph 33.4 mph N/A   Scattered Clouds
1:12 PM 75.2 °F - 33.8 °F 22% 29.94 in 10.0 mi SE 19.6 mph 28.8 mph N/A   Clear
1:33 PM 75.2 °F - 35.6 °F 24% 29.92 in 10.0 mi SE 19.6 mph 26.5 mph N/A   Scattered Clouds
1:52 PM 77.0 °F - 37.4 °F 24% 29.91 in 10.0 mi SSE 17.3 mph 26.5 mph N/A   Scattered Clouds
2:12 PM 77.0 °F - 39.2 °F 26% 29.90 in 10.0 mi SE 19.6 mph 23.0 mph N/A   Clear
2:32 PM 78.8 °F - 41.0 °F 26% 29.88 in 10.0 mi SE 16.1 mph 21.9 mph N/A   Clear
2:52 PM 78.8 °F - 44.6 °F 30% 29.87 in 10.0 mi SSE 19.6 mph 26.5 mph N/A   Clear
3:12 PM 80.6 °F - 44.6 °F 28% 29.86 in 10.0 mi SSE 19.6 mph 28.8 mph N/A   Clear
3:32 PM 78.8 °F - 46.4 °F 32% 29.85 in 10.0 mi SSE 17.3 mph 21.9 mph N/A   Scattered Clouds
3:52 PM 78.8 °F - 51.8 °F 39% 29.85 in 10.0 mi SSE 12.7 mph 20.7 mph N/A   Scattered Clouds
4:12 PM 78.8 °F - 53.6 °F 42% 29.84 in 10.0 mi SSE 12.7 mph 23.0 mph N/A   Clear
4:33 PM 80.6 °F - 53.6 °F 39% 29.82 in 10.0 mi SSE 16.1 mph 24.2 mph N/A   Clear
4:52 PM 80.6 °F - 55.4 °F 42% 29.81 in 10.0 mi SSE 13.8 mph 20.7 mph N/A   Clear
5:12 PM 78.8 °F - 55.4 °F 44% 29.82 in 10.0 mi SSE 9.2 mph - N/A   Clear
5:32 PM 78.8 °F - 57.2 °F 47% 29.82 in 10.0 mi South 10.4 mph 18.4 mph N/A Thunderstorm Scattered Clouds
5:52 PM 77.0 °F - 59.0 °F 54% 29.82 in 10.0 mi South 15.0 mph - N/A Thunderstorm Overcast
6:12 PM 69.8 °F - 64.4 °F 83% 29.84 in 10.0 mi SSW 15.0 mph - 0.13 in Rain , Thunderstorm Rain
6:32 PM 68.0 °F - 64.4 °F 88% 29.84 in 10.0 mi South 10.4 mph - 0.28 in Rain , Thunderstorm Rain
6:52 PM 66.2 °F - 62.6 °F 88% 29.83 in 10.0 mi SE 10.4 mph - 0.19 in Rain , Thunderstorm Light Thunderstorms and Rain
7:12 PM 66.2 °F - 60.8 °F 83% 29.82 in 10.0 mi SSE 12.7 mph - N/A Thunderstorm Mostly Cloudy
7:33 PM 68.0 °F - 62.6 °F 83% 29.82 in 10.0 mi SE 6.9 mph - N/A Rain , Thunderstorm Light Thunderstorms and Rain
7:52 PM 66.2 °F - 62.6 °F 88% 29.81 in 10.0 mi Calm Calm - N/A Rain Light Rain
8:12 PM 68.0 °F - 60.8 °F 78% 29.81 in 10.0 mi Calm Calm - N/A Rain , Thunderstorm Light Thunderstorms and Rain
8:32 PM 66.2 °F - 62.6 °F 88% 29.83 in 10.0 mi NW 3.5 mph - N/A Rain , Thunderstorm Light Thunderstorms and Rain
8:52 PM 66.2 °F - 62.6 °F 88% 29.82 in 4.0 mi Calm Calm - 0.06 in Rain , Thunderstorm Heavy Thunderstorms and Rain
9:12 PM 66.2 °F - 62.6 °F 88% 29.82 in 10.0 mi NNW 4.6 mph 17.3 mph 0.23 in Rain , Thunderstorm Heavy Thunderstorms and Rain
9:33 PM 66.2 °F - 62.6 °F 88% 29.82 in 10.0 mi Calm Calm - 0.24 in Thunderstorm Overcast
9:52 PM 66.2 °F - 60.8 °F 83% 29.85 in 10.0 mi NW 17.3 mph 26.5 mph 0.24 in Thunderstorm Mostly Cloudy
10:13 PM 64.4 °F - 60.8 °F 88% 29.85 in 10.0 mi NNW 11.5 mph - N/A   Mostly Cloudy
10:32 PM 64.4 °F - 60.8 °F 88% 29.85 in 7.0 mi Calm Calm - 0.01 in Rain , Thunderstorm Rain
10:52 PM 62.6 °F - 60.8 °F 94% 29.83 in 10.0 mi ENE 5.8 mph - 0.02 in   Mostly Cloudy
11:13 PM 62.6 °F - 60.8 °F 94% 29.83 in 7.0 mi NNE 3.5 mph - N/A   Scattered Clouds
11:32 PM 62.6 °F - 60.8 °F 94% 29.84 in 7.0 mi Calm Calm - N/A   Scattered Clouds
11:52 PM 62.6 °F - 60.8 °F 94% 29.85 in 5.0 mi Calm Calm - N/A   Scattered Clouds